Погода в Буяге

Погода в Буяге : погода сейчас, прогноз погоды и архив. Всё, что Вы хотите узнать о погоде в Буяге!

Поиск расширенной информации на нашем сайте:

Полезная информация: Содержательный информационный сайт геологии Земли http://www.geologam.ru/

Другие новости

Новости СМИ2

Главная страница сайта

Новости сайта

03.07.2017

Напоминаем, что на нашем специализированном сайте Метеоцентр.Азия вы можете получить высокодетализированные автоматические прогнозы погоды по пунктам России, СНГ и мира в авиационном формате (включающие направление и скорость ветра, видимость, явления погоды, количество и форму облачности, нижнюю и верхнюю границу облачности).

Рекомендуем: Вшэ в праге высшая школа экономики прага.

Погода в Буяге - сегодня

Время (UTC), дата Ветер
(°,м/с) 
Видим.   Явления Облачность Т
(°С)
Тd
(°С)
f(%) Тe
(°С)
Pmin
(гПа)
dP
(гПа)
Po
(мм)
O2
(г/м3)
Тmin Tmax R s Состояние
почвы
15 18.09.17 тихо ()   20000 м    10/10 1000 м 
[Sc]
+3.9 +1.9 87 +4  1013.3  -0.9  734  291           
18 18.09.17 тихо ()   20000 м    10/10 1000 м 
[Sc]
+2.8 +2 94 +3  1013  -0.4  734  292           
21 18.09.17 тихо ()   4000 м  слаб. снег  10/3 1000 м средняя 
[Sc|As op]
+1.3 +1.5 100 +1  1012.6  -0.6  734  294           
00 19.09.17 320 (СЗ) 10 км  слаб. дождь{снег}  10/0 средняя 
[As op]
+1.3 +1.3 100 +2  1012.6  734  294  +1.1      влажная 
03 19.09.17 250 (З) 20000 м  {дождь}  10/3 300 м средняя 
[St|As op]
+2.4 +0.8 89 +2  1012.5  734  293           
06 19.09.17 270 (З) 20000 м  {дождь}  10/6 300 м средняя 
[St|As op]
+4.6 -3.5 56 +3  1012.7  0.4  734  291           
09 19.09.17 тихо ()   20000 м    10/5 1000 м средняя, верхняя 
[Sc|As trans|Ci fib]
+4 -2.9 61 +4  1013.2  0.5  734  292           
12 19.09.17 тихо ()   20000 м    10/10 1000 м 
[Sc]
+3.7 -0.9 72 +4  1013.9  0.6  735  292    +4.8  0.9     
15 19.09.17 270 (З) 20000 м    6/6 1000 м 
[Sc]
+2.6 +0.2 84 +2  1014.6  0.5  735  293           
18 19.09.17 тихо ()   20000 м    4/4 1000 м 
[Sc]
+1.4 -0.3 88 +1  1015.1  0.4  736  295           
21 19.09.17 тихо ()   20000 м    10/0 средняя 
[As op]
-0.4 -0.7 98 -0  1014.9  -0.4  735  297           
00 20.09.17 250 (З) 20000 м    10/10 1000 м 
[Sc]
+1 -0.1 92 +2  1014.5  -0.2  735  295  -0.7        влажная 
03 20.09.17 230 (ЮЗ) 20000 м    10/10 600 м 
[St]
+4.8 +1.4 79 +6  1014  735  291           
06 20.09.17 270 (З) 20000 м    10/10 600 м кучево-дожд. 
[Cb cap]
+5.8 +1 71 +7  1012.5  -1.4  734  289           
09 20.09.17 320 (СЗ) 20000 м    10/10 600 м кучево-дожд. 
[Cb cap]
+5.3 -1.8 60 +6  1012.6  734  290           
12 20.09.17 тихо ()   20000 м    10/10 1000 м 
[Sc]
+2.4 -0.3 82 +2  1013.2  0.2  734  293    +5.7       
15 20.09.17 тихо ()   20000 м    10/10 1000 м 
[Sc]
+0.4 -0.7 92 1013.6  0.2  734  295           
18 20.09.17 тихо ()   20000 м    10/10 1000 м 
[Sc]
-0.8 -0.8 100 -1  1014  0.3  735  297           
21 20.09.17 270 (З) 20000 м    10/0 средняя 
[As op]
+0.4 -0.4 94 +1  1013.9  735  296           
00 21.09.17 тихо ()   20000 м    10/10 1000 м 
[Sc]
+0.9 -0.8 88 +1  1013.9  0.1  735  295  -0.9        влажная 
03 21.09.17 тихо ()   20000 м    9/9 600 м 
[Cu Sc]
+4.8 +0.1 72 +5  1013.8  0.3  735  291           
06 21.09.17 270 (З) 20000 м    9/9 1000 м 
[Sc]
+7.5 -1.1 54 +8  1013  -0.4  735  288           
09 21.09.17 тихо ()   20000 м    10/10 1000 м 
[Sc]
+6.1 -0.8 61 +6  1013.1  -0.1  734  290           
12 21.09.17 тихо ()   20000 м    6/6 1000 м 
[Sc]
+3.7 +0.6 80 +4  1014.1  0.7  735  292    +8.4       
15 21.09.17 тихо ()   20000 м    ясно 
+0.7 -0.7 90 +1  1015.4  0.9  736  296           
Время (UTC), дата Ветер
(°,м/с) 
Видим.   Явления Облачность Т
(°С)
Тd
(°С)
f(%) Тe
(°С)
Pmin
(гПа)
dP
(гПа)
Po
(мм)
O2
(г/м3)
Тmin Tmax R s Состояние
почвы

Для получения пояснительной информации подведите курсор к названию столбца.

ПОГОДА в Буяге - архив

Всё, что Вы хотите узнать о погоде в Буяге - удобно и подробно!

Выберите нужную дату (начиная с 1 января 2015* года) и нажмите кнопку "Найти".
Будут отображены архивные сводки погоды по пункту Буяга, начиная с указанной даты.


Отображать данные в формате CSV (для использования в таблицах Excel)


Внимание! Наш архив погоды предназначен исключительно для личного некоммерческого использования в познавательных целях. Если Вам необходимы официальные справки о состоянии погоды (для производственных, юридических, коммерческих и т.п. целей), обращайтесь в органы Росгидромета.

*Примечание: данная дата относится к архиву по метеостанциям СССР (Россия, СНГ, Балтия).
Архив по метеостанциям Зарубежной Европы и Азии (кроме Китая) хранится 10 дней, по другим регионам земного шара (Китай, Африка, Америка, Австралия, Океания) - 1 день.

Буяга - район местоположения метеостанции


Название, широта, долгота, высота метеостанции:
Буяга 59.6°ш. 127.2°д. 278 м над ур. моря [Российская Федерация]

Дополнительная информация

В oтличие oт бoльшинства пoгoдных сайтoв мы публикуем пoдрoбную метеoинфoрмацию в детальнoм прoфессиoнальнoм фoрмате.

Характеристики температуры и влажнoсти вoздуха измеряются на высoте 2 м в тени вдали oт зданий и деревьев.
Скoрoсть ветра измеряется на высoте 10 м (на урoвне рoста челoвека скoрoсть ветра ниже в 1.5-2 раза). Если метеoстанция нахoдится в гoрoде или в лесу, тo скoрoсть ветра занижена на 2-4 м/с пo сравнению с oткрытым местoм. Скoрoсть ветра над акватoриями крупных рек и oзёр, а также на вершинах хoлмoв на 2-5 м/с выше, чем в oбычных услoвиях.
Атмoсфернoе давление в разных тoчках местнoсти мoжет значительнo oтличаться oт давления на метеoстанции, в зависимoсти oт услoвий рельефа (при пoдъёме на 10 м давление пoнижается примернo на 1 мм рт.ст.).